Location: Fluertsh�userhof
(48.7537°N, 10.3850°E)
Time: 02:19:43
(UTC+00:00)

Cosmos 2150 Rocket - Pass Details

Date: 18 September 2020
Orbit: 749 x 808 km, 74.0° (Epoch: 24 October)

Event Time Altitude Azimuth Distance (km) Brightness Sun altitude
Rises 18:46:07 0° 180° (S) 3,259 7.1 -14.1°
Reaches altitude 10° 18:48:35 10° 174° (S) 2,345 6.3 -14.4°
Maximum altitude 18:53:36 43° 104° (ESE) 1,110 4.4 -15.2°
Drops below altitude 10° 18:58:43 10° 34° (NE) 2,391 6.4 -16.0°
Sets 19:01:14 0° 28° (NNE) 3,332 7.2 -16.4°
